Wind_Speed
13 11 9 8 8 9 10 10 12 13 15 16 18 19 21 22 22 22 22 23 23 23 23 24 23 24 25 25 26 26 27 27 27 28 29 30 31 31 32 32 33 33 33
10 8 6 7 8 9 10 11 13 15 17 18 20 22 23 24 24 24 23 23 23 23 23 23 23 23 24 24 25 25 26 27 27 27 28 29 30 30 32 33 34 34 34
3 3 4 6 8 9 11 13 15 17 18 20 21 22 23 23 23 23 22 22 22 22 22 22 23 23 23 24 24 24 25 26 26 27 28 29 30 30 31 33 34 35 35
2 3 5 7 9 11 13 15 17 18 20 21 21 22 22 21 21 21 21 21 21 21 21 22 22 23 23 24 25 25 26 27 27 28 29 29 30 31 32 33 34 35 36
4 4 6 8 10 12 14 16 18 19 19 19 20 20 21 21 21 21 21 20 20 20 20 21 22 23 24 25 26 26 27 28 29 30 30 31 32 33 34 35 35 36 37
5 6 8 9 11 13 15 17 17 18 18 19 20 20 20 21 21 21 21 21 21 21 21 22 23 24 25 26 27 28 29 30 31 32 33 34 35 36 36 37 38 39 39
7 8 10 11 13 14 16 17 17 18 19 20 20 20 21 21 21 21 22 22 22 23 23 24 25 25 26 27 28 29 30 31 33 34 35 36 38 38 39 39 39 40 41
9 11 12 13 14 15 16 17 18 19 20 20 20 21 21 21 22 22 23 23 24 25 26 27 27 28 28 29 30 31 32 33 34 35 36 38 39 40 41 41 42 42 43
11 12 14 15 16 16 17 18 18 19 19 20 21 22 22 23 23 24 25 25 26 27 28 29 30 31 31 32 32 33 33 34 35 36 37 38 39 41 42 43 43 44 44
13 14 15 16 16 17 17 18 19 19 20 21 22 23 24 25 25 26 27 28 28 30 31 32 33 34 34 34 34 35 35 35 36 37 37 38 40 41 41 43 44 44 45
15 15 16 17 17 17 18 19 19 20 22 23 24 25 26 27 27 28 29 30 31 32 34 35 36 36 36 36 36 36 36 36 36 37 37 38 40 41 42 42 44 45 45
16 16 16 17 17 17 18 19 20 22 23 25 26 27 28 29 30 30 31 33 34 35 36 37 38 38 38 37 37 37 36 36 36 37 37 37 38 39 41 42 43 44 45
16 16 16 17 17 18 19 20 22 23 25 27 28 29 30 31 32 33 34 35 37 38 39 40 40 39 39 39 39 38 37 36 36 36 36 36 37 38 39 40 41 43 44
16 16 16 17 18 19 20 22 23 25 27 28 30 31 32 33 34 35 37 38 40 41 42 42 41 40 40 40 39 37 36 35 35 35 34 35 36 37 38 39 40 42 43
16 16 17 18 19 21 22 23 25 26 28 30 31 33 34 35 36 37 40 42 43 43 44 43 42 41 40 39 38 37 36 35 35 34 34 34 35 36 37 39 40 41 42
17 17 18 19 21 22 23 24 26 28 30 31 32 34 35 36 37 40 42 44 44 45 45 43 42 41 40 39 38 37 35 34 34 34 35 35 35 35 37 38 40 42 42
18 18 19 21 22 23 25 26 28 29 31 32 33 35 36 38 40 42 44 45 46 46 45 43 42 41 40 38 36 35 34 34 34 34 34 34 34 35 36 38 39 41 43
19 20 21 22 24 25 26 28 29 30 32 33 34 36 38 40 42 44 46 47 47 46 45 43 42 40 39 37 35 35 34 33 33 33 33 33 34 34 35 37 39 41 43
20 21 22 24 25 27 28 29 30 31 32 33 35 36 39 41 44 46 48 48 47 46 45 43 41 39 37 36 34 33 32 32 31 31 31 31 32 34 35 36 38 39 42
22 23 24 26 27 28 29 31 32 32 33 35 36 39 41 43 46 48 49 49 48 46 44 41 39 37 35 34 33 32 31 30 30 30 30 30 31 32 33 35 36 38 40
25 26 27 28 29 30 31 32 33 34 35 37 39 41 44 46 47 49 50 50 48 45 43 40 38 36 34 33 32 31 30 29 29 29 29 29 30 30 31 33 35 37 39
27 28 29 30 31 32 33 34 34 35 36 39 41 44 47 48 50 51 51 50 47 44 41 38 37 35 33 32 31 31 30 29 29 29 29 28 28 28 29 30 32 34 37
30 31 32 33 33 34 36 36 36 37 39 41 44 47 49 50 51 52 51 49 46 43 39 37 36 34 33 31 31 30 29 29 28 28 28 27 27 28 27 27 28 30 33
33 34 35 35 36 37 37 39 40 41 42 44 46 48 50 51 52 52 50 48 45 42 38 36 35 33 32 31 31 30 29 29 28 28 27 26 25 25 25 25 25 27 28
35 36 37 38 39 40 40 41 43 44 44 46 49 50 51 52 53 51 49 46 44 41 38 36 34 32 32 31 31 30 29 29 28 27 25 24 23 22 21 21 22 23 25
37 38 40 42 43 43 44 44 45 46 47 49 51 51 52 53 52 50 47 44 42 40 37 34 33 32 31 31 30 29 28 29 28 26 23 22 20 20 20 19 19 20 21
Wind_Direction
270 272 276 283 295 304 310 314 316 317 316 316 316 315 314 313 312 311 308 305 303 301 298 295 291 287 284 281 278 276 273 272 270 268 266 263 260 258 255 253 251 250 248
270 268 277 289 307 317 320 320 320 320 320 320 319 318 317 315 313 311 309 307 304 302 300 298 295 292 289 286 283 279 276 273 271 269 266 263 260 258 256 253 251 250 248
267 277 304 318 323 326 326 325 325 323 322 320 318 318 317 315 312 311 309 307 306 304 302 299 297 294 291 288 286 283 280 277 273 269 267 264 262 260 256 253 252 249 248
324 326 330 333 331 330 328 326 324 322 321 320 319 319 317 316 316 314 312 310 309 307 304 302 299 296 294 291 289 287 284 280 276 272 268 265 262 259 257 254 252 250 248
356 354 342 334 330 328 325 324 323 323 322 322 321 319 319 319 318 316 315 314 312 310 308 305 302 299 297 294 292 289 286 283 280 275 271 267 263 260 257 256 254 251 249
355 347 335 329 327 325 324 324 325 325 323 322 321 321 320 319 318 317 315 314 313 311 310 308 306 302 300 297 295 292 289 286 282 278 273 269 264 260 257 255 254 252 250
346 338 329 325 324 322 322 322 322 322 320 320 320 321 320 319 318 317 317 315 314 313 312 311 309 306 302 300 297 294 291 287 283 279 275 270 266 262 258 255 252 251 250
333 327 322 320 320 319 318 318 318 319 319 319 320 321 321 320 319 319 319 318 316 315 314 313 311 308 304 302 299 296 292 289 285 280 276 271 267 263 259 255 251 249 248
321 317 315 315 315 314 315 315 316 318 321 322 323 323 323 322 321 320 319 318 317 316 315 313 311 309 306 304 301 297 293 289 285 281 277 273 268 263 259 255 252 249 247
314 311 310 310 310 310 312 314 316 320 323 325 326 326 325 324 323 322 320 318 317 317 316 314 312 310 307 304 302 298 295 290 286 282 278 274 269 264 260 256 252 249 246
307 306 305 306 307 308 310 314 317 320 324 327 328 328 327 326 324 323 322 320 319 318 317 315 313 310 308 305 302 299 296 291 287 283 279 274 269 264 260 256 252 249 246
303 302 302 303 305 307 310 314 318 321 325 327 329 329 328 326 325 324 323 321 320 319 317 315 313 310 308 305 303 300 297 293 288 284 279 274 269 264 260 256 252 249 246
302 301 302 303 305 308 312 316 319 323 325 327 329 329 328 327 325 324 323 322 320 319 317 315 313 311 308 305 303 300 297 294 290 285 280 275 270 265 261 257 253 249 246
302 302 302 304 306 309 313 317 321 323 326 328 329 328 327 326 325 325 324 322 321 319 317 316 313 310 308 305 303 300 297 294 290 286 281 276 271 266 262 258 254 250 246
302 302 303 305 308 311 315 318 321 324 326 327 328 327 327 326 326 325 324 323 321 319 318 316 313 311 308 306 303 300 297 294 290 286 282 277 272 267 262 258 254 250 247
302 303 305 307 310 313 316 319 321 324 326 327 327 327 327 326 326 326 326 324 322 320 318 316 314 312 310 307 304 302 299 295 292 288 284 279 275 270 264 259 254 250 246
303 305 306 308 311 314 316 318 320 323 326 326 326 327 326 326 326 327 326 325 324 321 319 317 315 313 310 308 305 303 300 297 294 290 285 281 277 272 266 260 255 251 246
304 305 305 307 310 313 315 317 320 322 324 325 325 326 327 327 328 328 328 326 325 322 319 317 315 313 311 309 307 304 301 299 296 292 287 283 279 274 268 262 256 251 247
303 304 306 308 310 312 314 316 319 321 322 324 324 326 327 329 329 330 329 328 326 323 320 318 316 314 312 310 309 307 304 300 297 294 290 286 281 277 271 264 258 253 248
303 305 306 308 309 311 313 315 317 319 321 323 324 325 328 329 329 330 330 330 327 324 322 320 318 316 314 312 311 309 306 302 299 297 293 290 285 280 274 267 259 254 250
304 305 306 307 309 310 312 314 315 318 320 323 323 325 327 328 329 330 331 330 328 326 323 322 320 318 316 313 312 311 308 304 301 298 295 292 288 283 276 269 261 256 251
304 305 306 307 308 310 312 314 314 316 319 322 323 326 327 328 329 329 330 330 329 326 324 322 320 319 318 315 314 313 310 306 303 300 297 294 290 287 281 272 264 258 251
303 304 305 306 307 310 312 313 313 315 317 320 322 324 325 326 327 328 328 329 328 326 324 322 321 320 319 317 316 315 313 310 306 303 299 296 292 289 284 276 267 260 252
302 303 305 306 307 309 310 311 311 314 315 318 320 322 323 324 325 327 327 327 327 325 324 322 322 321 319 319 318 317 315 314 310 307 303 298 295 291 286 280 272 263 253
300 302 303 304 305 305 307 309 311 311 312 315 318 319 320 321 323 324 325 325 325 324 323 322 321 320 320 319 319 318 317 315 314 310 306 302 297 294 289 284 278 267 255
298 300 300 302 302 303 304 306 308 308 310 313 316 317 318 320 321 322 323 323 323 322 321 322 321 321 320 320 320 320 319 317 316 312 308 304 299 296 293 287 282 271 257
Height
5870 5870 5871 5871 5871 5870 5869 5867 5866 5864 5862 5859 5857 5855 5852 5850 5847 5844 5842 5839 5837 5835 5833 5831 5830 5828 5827 5826 5826 5825 5824 5824 5824 5824 5824 5825 5825 5826 5827 5829 5830 5832 5834
5866 5867 5868 5869 5868 5867 5866 5864 5862 5860 5858 5855 5853 5850 5847 5844 5842 5839 5837 5834 5832 5829 5827 5825 5824 5822 5821 5820 5819 5818 5817 5817 5817 5817 5817 5817 5818 5818 5819 5820 5822 5823 5825
5864 5865 5866 5866 5865 5864 5862 5861 5859 5857 5854 5852 5849 5846 5843 5840 5837 5835 5832 5829 5827 5824 5822 5820 5818 5816 5815 5813 5812 5811 5810 5809 5809 5809 5809 5809 5809 5810 5811 5812 5813 5814 5817
5862 5863 5863 5863 5862 5861 5859 5858 5856 5853 5851 5848 5845 5842 5839 5836 5833 5830 5827 5825 5822 5819 5817 5815 5813 5810 5809 5807 5805 5804 5803 5802 5801 5801 5801 5801 5801 5801 5802 5803 5804 5805 5807
5861 5861 5861 5861 5860 5859 5857 5855 5853 5850 5848 5845 5842 5839 5836 5833 5829 5826 5823 5820 5817 5815 5812 5810 5807 5805 5802 5800 5798 5797 5795 5794 5793 5792 5792 5792 5792 5792 5793 5794 5795 5796 5798
5860 5860 5860 5859 5858 5857 5855 5853 5850 5848 5845 5842 5839 5836 5833 5829 5826 5822 5819 5816 5813 5810 5807 5804 5801 5799 5796 5793 5791 5789 5787 5785 5784 5782 5782 5782 5782 5783 5784 5785 5785 5786 5788
5859 5859 5858 5857 5856 5854 5852 5850 5848 5845 5843 5839 5836 5833 5829 5826 5822 5818 5815 5811 5808 5804 5801 5798 5795 5792 5789 5786 5783 5780 5778 5776 5774 5772 5771 5771 5771 5772 5773 5774 5775 5776 5777
5858 5857 5856 5855 5853 5852 5850 5848 5845 5843 5840 5836 5833 5829 5825 5821 5817 5814 5810 5806 5802 5798 5795 5791 5788 5784 5781 5778 5774 5771 5769 5766 5764 5762 5760 5759 5759 5759 5760 5762 5764 5765 5767
5857 5856 5854 5853 5851 5849 5847 5845 5842 5839 5836 5833 5829 5825 5821 5816 5812 5808 5804 5800 5796 5792 5788 5784 5780 5776 5772 5768 5765 5761 5758 5755 5753 5751 5749 5748 5747 5747 5748 5749 5751 5754 5756
5855 5853 5852 5850 5848 5846 5844 5842 5839 5836 5832 5828 5824 5820 5815 5811 5807 5802 5798 5793 5789 5785 5780 5776 5771 5767 5762 5758 5754 5750 5747 5744 5741 5739 5737 5735 5734 5734 5735 5736 5738 5740 5743
5853 5851 5849 5847 5845 5843 5841 5838 5835 5832 5828 5823 5819 5814 5810 5805 5801 5796 5791 5786 5782 5777 5772 5767 5762 5757 5752 5748 5743 5739 5736 5732 5729 5726 5724 5722 5721 5721 5722 5723 5725 5727 5730
5850 5848 5846 5844 5842 5839 5837 5834 5830 5827 5823 5818 5814 5809 5804 5799 5794 5789 5784 5779 5774 5768 5763 5758 5752 5747 5742 5737 5732 5728 5724 5720 5716 5713 5711 5710 5708 5708 5709 5710 5712 5714 5717
5846 5844 5842 5840 5838 5835 5832 5829 5826 5822 5817 5813 5808 5803 5798 5793 5788 5783 5777 5772 5766 5760 5754 5748 5742 5736 5731 5725 5721 5716 5712 5708 5704 5701 5699 5697 5696 5696 5696 5697 5699 5701 5705
5842 5840 5838 5836 5833 5831 5827 5824 5820 5816 5811 5807 5802 5797 5792 5786 5781 5775 5770 5764 5757 5751 5744 5738 5731 5725 5720 5714 5709 5704 5700 5696 5692 5689 5687 5685 5684 5684 5684 5685 5686 5689 5692
5838 5836 5834 5831 5829 5826 5822 5819 5815 5810 5806 5801 5796 5791 5785 5780 5774 5768 5762 5755 5748 5741 5734 5728 5721 5714 5708 5703 5697 5693 5688 5684 5681 5678 5675 5673 5672 5672 5672 5673 5674 5676 5679
5833 5831 5829 5826 5823 5820 5817 5813 5809 5804 5799 5795 5790 5784 5778 5773 5767 5760 5754 5746 5739 5732 5724 5717 5710 5703 5697 5692 5686 5681 5677 5673 5669 5666 5663 5661 5660 5659 5660 5660 5662 5664 5667
5828 5826 5823 5821 5818 5814 5811 5807 5802 5798 5793 5788 5783 5777 5771 5765 5759 5752 5745 5737 5729 5722 5714 5707 5700 5693 5686 5681 5675 5670 5666 5662 5658 5654 5651 5649 5648 5647 5647 5647 5649 5651 5654
5823 5821 5818 5815 5812 5808 5804 5800 5796 5791 5787 5782 5776 5771 5764 5758 5751 5743 5735 5728 5720 5712 5704 5696 5689 5683 5676 5670 5665 5660 5655 5651 5647 5643 5640 5638 5636 5634 5634 5635 5636 5638 5641
5818 5815 5812 5809 5806 5802 5798 5794 5789 5785 5780 5775 5769 5763 5757 5750 5742 5734 5726 5718 5710 5702 5694 5686 5679 5673 5666 5661 5655 5650 5645 5641 5637 5633 5630 5627 5625 5623 5622 5622 5623 5625 5628
5812 5809 5806 5803 5799 5795 5791 5787 5782 5778 5773 5767 5761 5755 5748 5741 5733 5725 5717 5709 5700 5692 5684 5677 5670 5663 5657 5651 5646 5641 5636 5632 5628 5624 5620 5617 5614 5612 5610 5609 5610 5612 5614
5805 5802 5799 5796 5792 5788 5784 5779 5775 5770 5765 5759 5753 5747 5740 5732 5725 5716 5708 5700 5691 5683 5675 5668 5661 5655 5649 5643 5638 5632 5627 5623 5618 5614 5610 5607 5604 5600 5598 5597 5597 5598 5601
5799 5795 5792 5788 5784 5780 5776 5772 5767 5762 5756 5751 5744 5738 5731 5723 5715 5707 5699 5691 5683 5674 5667 5660 5653 5647 5641 5635 5629 5624 5619 5614 5609 5605 5601 5597 5594 5590 5588 5586 5585 5585 5587
5791 5788 5784 5780 5776 5772 5768 5763 5758 5753 5747 5741 5735 5728 5721 5714 5706 5698 5690 5682 5674 5666 5659 5652 5645 5639 5633 5627 5622 5616 5611 5606 5601 5596 5592 5588 5584 5581 5578 5576 5574 5574 5575
5783 5779 5775 5771 5767 5763 5759 5754 5749 5743 5738 5732 5725 5719 5712 5704 5697 5689 5681 5673 5665 5658 5651 5644 5638 5632 5626 5620 5614 5608 5603 5598 5593 5588 5583 5579 5575 5572 5569 5566 5565 5564 5565
5774 5770 5766 5762 5758 5754 5749 5744 5739 5733 5728 5722 5715 5709 5702 5694 5687 5679 5672 5664 5657 5650 5644 5637 5631 5625 5619 5613 5607 5601 5595 5590 5585 5580 5575 5571 5567 5564 5561 5558 5556 5555 5555
5764 5761 5757 5752 5748 5743 5738 5733 5729 5723 5717 5711 5705 5699 5691 5684 5677 5670 5662 5655 5649 5642 5636 5630 5624 5618 5612 5606 5600 5594 5588 5583 5577 5572 5568 5564 5561 5558 5554 5552 5549 5548 5547